Theta_e
273 274 274 275 277 279 279 281 283 285 287 289 292 292 292 294 306 309 309 306 307 306 304 303 302 303 302 302 301 303 301 300 294 286 288 291 291 298 296 299 298 301 301
272 272 273 274 275 276 277 280 282 284 287 288 291 292 292 296 306 307 306 305 304 301 300 301 301 301 300 301 300 300 300 300 294 289 286 288 290 292 292 292 294 295 295
271 272 273 273 274 275 277 279 282 283 286 289 292 292 292 293 303 306 305 304 302 301 300 300 299 300 298 299 299 299 299 294 295 291 286 286 287 293 290 289 290 290 291
272 272 271 272 274 275 276 278 280 284 286 288 292 292 292 297 303 304 301 301 300 298 299 301 300 300 299 298 298 297 296 293 293 292 290 287 288 287 293 291 288 287 288
271 271 271 273 275 275 276 278 280 284 286 289 290 290 294 301 302 300 299 299 297 296 297 299 299 298 297 298 297 295 295 293 292 291 288 286 287 289 290 289 290 286 286
270 272 274 277 278 277 278 278 281 284 285 288 288 289 293 299 298 297 298 297 295 295 295 296 297 292 294 295 296 296 297 293 290 289 287 289 288 290 289 290 288 288 286
271 273 276 280 284 279 282 283 284 284 286 288 290 293 295 296 296 296 295 295 294 295 295 294 293 293 293 295 293 293 292 294 293 291 288 289 288 290 290 289 288 289 284
271 273 276 280 284 285 285 285 285 286 288 290 292 293 294 294 295 295 292 294 295 294 294 295 294 291 293 292 291 290 290 291 291 291 292 291 291 291 291 290 288 285 285
270 272 275 279 281 282 284 286 287 288 288 286 290 291 292 293 294 293 293 292 291 290 291 292 293 293 292 293 291 290 289 288 292 292 293 293 293 293 292 289 287 287 282
269 272 275 278 279 280 282 283 285 286 285 285 286 288 290 291 293 292 291 289 288 288 288 288 289 293 292 294 292 291 289 287 288 287 288 291 292 291 291 292 289 288 282
270 272 274 276 278 279 281 282 282 283 284 284 284 285 287 289 290 291 291 289 288 287 287 287 288 291 293 294 295 292 291 288 289 288 288 288 288 288 289 288 291 291 287
270 271 272 275 277 279 279 279 281 281 281 282 282 283 285 287 289 290 290 290 290 287 286 287 288 291 292 293 292 291 291 288 288 287 287 286 286 287 286 286 286 286 286
269 269 271 273 276 277 278 278 278 279 279 279 280 280 281 284 285 288 289 289 289 287 288 290 290 291 291 291 291 290 287 288 287 286 286 285 286 286 285 285 285 285 285
268 268 270 270 272 276 277 278 279 278 278 279 279 280 281 282 282 284 285 285 287 287 288 287 288 288 288 286 286 287 287 287 287 286 285 284 285 285 284 285 284 283 281
267 267 268 269 269 271 274 277 278 281 281 278 280 281 281 281 283 285 285 285 285 286 286 286 286 285 284 284 284 285 286 286 285 285 284 284 283 283 282 284 283 281 279
265 265 266 267 268 269 270 272 279 281 283 284 285 283 284 286 286 287 287 287 287 287 285 284 284 284 283 283 284 284 284 284 284 285 284 284 282 282 281 282 282 281 279
262 263 265 265 266 267 268 268 268 273 277 280 283 284 285 285 286 286 286 285 285 285 282 282 282 282 283 283 283 283 282 283 284 284 283 283 282 281 281 281 280 279 278
259 261 262 263 264 265 265 266 267 267 267 268 275 279 282 283 284 284 284 283 280 281 280 280 280 281 282 282 282 282 283 283 283 283 282 282 282 282 281 280 280 278 277
260 261 260 261 262 263 263 264 265 265 265 267 269 271 270 280 280 280 281 279 278 278 279 279 280 281 281 282 282 283 283 282 282 282 282 282 282 282 281 281 279 278 278
257 261 258 259 260 261 261 262 262 262 263 264 266 265 266 271 272 272 273 274 275 277 278 278 279 280 281 281 282 282 282 282 282 282 282 281 277 281 280 279 278 277 277
252 254 256 257 257 256 258 258 258 260 260 260 261 271 272 265 269 270 270 270 271 273 275 277 278 278 279 280 282 281 281 280 279 278 279 282 280 278 277 277 277 274 272
251 251 251 252 252 255 254 254 255 256 257 257 256 261 268 261 261 262 263 264 267 272 273 276 277 277 277 278 279 281 280 277 275 272 277 278 277 278 278 276 273 272 270
250 251 251 250 250 253 254 253 254 253 253 253 252 255 255 254 254 255 255 254 257 265 270 274 275 276 277 277 278 277 278 268 269 272 274 277 277 277 274 273 272 271 270
250 251 251 249 250 249 250 250 250 253 251 251 250 251 252 251 251 253 253 253 255 256 260 270 274 274 274 276 278 277 276 266 266 272 274 275 275 275 274 273 272 271 270
250 251 251 250 250 250 250 250 251 250 250 251 253 252 251 252 252 251 251 252 252 254 257 263 272 274 274 265 276 276 276 275 269 273 275 275 273 274 274 273 271 271 269
251 251 251 250 250 250 250 251 251 251 252 252 252 252 252 252 252 251 251 252 252 254 256 257 261 262 265 261 263 265 266 274 276 274 275 275 274 273 273 271 270 270 268
Wind_Speed
18 18 19 17 18 17 17 18 18 18 17 17 18 17 10 11 15 15 14 14 16 16 13 15 15 14 10 12 9 9 10 9 7 1 2 2 4 10 6 5 8 7 8
17 19 20 19 18 18 20 20 18 19 18 18 20 19 17 12 13 19 14 16 17 17 17 16 16 12 13 12 12 13 9 8 7 12 2 2 4 6 5 6 4 3 4
18 19 20 20 18 20 22 21 19 19 20 18 20 19 17 15 15 18 18 17 17 18 18 18 17 17 15 12 12 11 9 5 9 9 6 3 3 6 5 4 4 4 3
17 17 20 19 19 20 21 21 20 18 19 20 17 16 17 17 17 18 16 17 16 16 18 19 18 19 18 17 14 14 11 10 10 11 7 5 5 2 6 9 4 4 3
19 18 19 18 19 20 21 21 19 19 18 17 14 16 13 15 13 16 16 18 16 16 15 15 16 17 19 20 14 14 15 12 11 12 9 5 6 9 12 6 5 4 2
19 17 19 17 16 19 19 18 19 19 18 16 14 14 13 11 18 22 21 16 18 18 17 14 14 14 16 20 18 21 19 17 13 8 4 10 11 11 6 10 7 7 4
18 19 18 14 10 16 17 18 17 20 15 17 15 16 15 13 23 26 24 15 17 16 17 16 13 11 16 15 16 16 16 17 19 12 14 10 12 14 12 12 9 8 3
20 21 20 17 7 9 12 13 13 12 15 13 14 13 13 11 25 26 23 16 14 15 16 17 17 17 16 17 17 13 11 9 9 6 14 13 11 15 14 8 8 6 5
23 23 22 18 14 13 10 8 9 10 9 3 7 10 13 15 27 27 20 13 13 12 10 13 14 15 19 21 16 15 12 6 5 10 11 19 20 26 18 12 9 10 3
23 22 20 19 19 17 16 14 11 12 11 8 9 7 13 16 25 25 20 13 14 11 9 8 14 14 21 21 15 14 13 8 10 9 8 12 17 18 27 15 13 12 5
21 22 22 22 19 18 18 16 14 14 15 15 14 9 10 16 18 24 23 13 12 12 9 7 7 19 21 20 15 10 8 10 10 9 8 8 9 12 6 4 10 12 8
21 21 22 22 19 17 19 16 15 15 16 13 14 14 12 13 26 27 26 24 21 13 9 8 10 15 14 16 13 17 22 15 8 8 8 7 8 8 7 6 5 6 5
18 20 21 20 20 20 20 19 15 13 13 12 10 14 14 13 16 33 29 29 24 15 10 17 24 21 17 11 18 23 17 9 9 9 8 6 5 8 10 10 9 12 10
15 16 15 17 18 19 15 15 14 13 12 14 16 14 11 13 14 12 12 14 21 18 18 14 17 20 19 12 9 7 6 7 9 9 8 7 7 8 8 8 9 9 9
12 13 14 12 14 13 15 16 14 18 19 14 12 12 12 16 16 20 16 11 11 15 13 10 10 9 12 7 5 7 6 7 8 8 9 9 9 8 8 6 8 5 6
11 10 11 9 9 9 10 10 29 32 34 34 32 20 15 26 27 29 30 26 22 19 12 10 9 9 10 7 6 6 6 6 6 8 7 8 9 9 9 6 5 6 10
10 10 8 9 9 10 10 9 10 14 29 35 34 33 30 26 26 28 28 28 24 18 13 10 10 8 8 6 6 5 5 5 7 6 7 8 8 8 9 8 7 8 8
9 11 8 8 8 9 9 9 8 10 10 11 22 23 29 29 28 26 24 20 14 15 11 9 9 8 7 6 6 5 4 5 6 7 6 7 7 8 8 7 7 9 9
7 7 6 6 8 8 8 9 10 11 10 9 9 14 16 27 27 26 22 12 11 10 9 10 8 7 7 6 5 5 4 4 5 5 5 6 7 7 7 7 7 10 12
7 11 8 6 7 8 8 9 9 9 9 10 10 9 7 7 11 10 10 9 9 9 8 8 7 6 5 5 5 4 4 4 5 5 5 5 4 6 8 8 8 9 8
2 4 8 7 7 5 5 7 5 7 7 7 7 11 19 8 8 9 8 9 8 8 7 6 5 6 5 5 5 4 4 3 3 4 4 7 6 7 6 7 8 7 9
3 3 3 3 3 5 4 4 5 5 6 6 5 6 16 7 7 7 7 6 6 5 4 5 5 5 5 4 3 4 4 3 3 4 5 5 5 7 7 7 8 8 8
2 2 3 3 3 4 5 5 5 4 3 3 4 5 5 5 4 4 3 3 3 4 5 4 4 3 3 3 3 3 2 3 4 4 5 6 7 6 7 8 9 9 8
4 4 3 3 3 3 3 3 3 5 4 3 3 2 3 2 2 3 3 3 3 2 3 3 3 4 4 3 3 2 3 1 3 4 6 6 7 8 7 8 8 10 10
3 3 3 4 2 1 3 3 4 4 4 3 3 3 2 2 3 3 2 3 3 3 4 4 3 3 3 2 2 2 3 1 4 5 4 6 8 10 8 8 9 9 10
2 2 2 1 1 3 3 2 0 1 2 3 3 3 3 3 3 2 2 3 3 2 3 2 3 4 3 2 2 2 2 2 3 6 6 7 8 7 8 10 13 9 11
Wind_Direction
276 273 267 260 255 252 248 244 241 239 236 236 241 240 238 219 216 203 189 176 180 169 173 167 169 166 171 164 172 184 159 160 141 102 112 144 129 161 169 150 145 156 150
279 275 268 263 256 247 243 242 233 238 230 230 237 235 233 230 217 202 187 176 173 171 165 170 169 167 173 175 164 176 173 159 137 148 101 127 122 135 133 123 125 123 143
281 273 268 262 250 243 242 237 231 228 231 228 232 231 223 226 214 212 189 176 174 172 168 169 170 169 170 172 167 167 163 129 145 146 137 119 98 151 121 101 114 122 79
287 277 272 261 247 239 237 235 230 226 225 223 237 225 214 213 206 208 180 173 174 173 173 174 174 176 173 166 163 163 153 146 149 143 148 135 128 139 166 145 139 61 111
302 290 274 259 242 231 225 223 221 221 219 224 242 219 216 199 198 191 178 167 166 167 167 172 178 178 174 166 160 159 157 153 157 152 154 141 145 155 166 149 136 117 89
307 300 295 270 231 218 217 213 212 211 213 220 234 220 211 198 184 183 169 168 165 166 165 165 167 163 164 167 158 160 166 163 154 139 180 164 149 157 134 160 145 157 167
323 327 322 311 196 191 198 196 201 206 204 211 227 215 196 189 177 176 168 166 163 167 163 162 157 156 157 161 144 146 150 159 158 151 161 163 149 166 152 157 165 173 127
340 345 350 357 41 171 177 183 186 200 200 209 209 191 174 176 171 166 163 156 157 159 164 163 160 155 161 154 148 141 143 150 155 156 164 159 151 153 164 156 138 105 79
352 356 354 7 32 60 75 124 161 161 145 116 163 155 171 172 162 152 143 140 139 130 142 149 150 158 155 151 147 142 123 100 91 120 139 145 147 154 145 129 146 151 133
352 356 1 12 29 44 54 55 75 95 93 93 82 124 148 146 142 135 131 128 126 119 102 129 139 149 156 152 147 143 143 146 140 106 101 120 136 153 156 166 153 161 129
351 0 6 18 31 37 49 46 53 72 82 84 74 78 106 124 123 119 126 125 125 104 121 130 141 146 156 161 156 158 153 134 125 121 121 127 132 141 146 142 171 160 151
355 5 6 17 26 33 44 48 50 58 64 74 83 79 75 96 97 98 100 101 111 115 114 105 108 118 133 139 142 131 131 123 125 128 137 145 151 151 143 125 92 92 83
1 3 4 12 23 27 34 39 40 50 63 62 73 63 57 61 72 77 80 91 95 97 96 103 101 103 100 101 136 139 134 138 143 144 145 133 133 130 115 107 105 94 79
4 6 9 18 17 28 35 35 44 45 49 48 50 59 58 59 65 66 68 72 79 82 85 85 94 94 87 88 101 96 116 139 145 143 127 113 120 130 130 133 124 119 103
14 8 13 18 21 19 33 40 36 46 52 54 51 61 59 62 63 76 76 73 74 83 91 88 94 95 87 81 78 87 99 107 113 119 127 134 134 126 120 125 128 121 115
23 18 12 13 16 22 19 36 49 51 49 56 58 61 67 71 67 67 69 72 79 90 85 85 85 82 86 88 81 79 75 84 109 118 124 130 131 132 127 119 109 120 128
20 11 7 16 17 21 35 41 34 30 45 45 51 57 63 72 73 77 77 75 73 83 77 77 73 72 81 86 89 75 87 81 89 98 119 128 128 123 130 127 122 121 117
3 14 16 8 17 23 26 35 45 43 44 37 38 44 53 57 58 59 65 66 60 55 64 68 74 71 66 68 66 81 87 92 99 109 115 117 119 129 131 132 135 135 133
16 12 8 12 16 24 24 32 31 35 41 42 36 37 28 56 56 51 50 58 68 64 61 57 50 57 61 64 70 74 67 77 87 103 109 122 122 132 127 128 127 134 136
1 8 19 26 21 21 25 39 35 37 36 31 33 28 13 50 52 43 39 47 54 57 60 59 48 50 57 63 69 67 76 89 103 112 113 111 100 127 134 133 136 140 136
27 10 6 9 34 28 33 43 34 40 45 46 26 37 49 55 52 52 41 33 33 31 34 57 60 50 45 42 77 69 79 75 89 111 125 140 127 116 116 124 129 113 120
13 10 23 34 354 12 32 45 41 45 42 40 13 25 54 52 46 42 38 30 16 21 21 32 53 47 37 37 42 103 109 124 129 109 114 117 113 122 129 118 119 123 127
108 41 17 16 27 9 19 16 36 51 60 52 31 26 21 33 40 45 50 19 7 359 358 24 50 56 51 39 36 32 95 173 175 130 126 132 129 125 126 133 135 132 135
108 109 79 15 17 24 30 20 7 11 13 28 46 40 59 66 40 28 17 4 12 351 352 358 37 50 21 40 56 61 15 141 143 139 127 122 122 124 123 128 135 134 132
19 40 85 115 109 25 7 8 0 355 359 355 350 2 13 52 47 18 6 0 3 13 0 344 5 38 55 352 43 50 11 74 123 116 110 114 123 130 133 129 132 129 133
341 343 337 20 95 143 148 151 260 329 327 327 331 333 340 350 349 355 355 8 359 352 349 345 357 16 9 8 278 245 254 207 141 124 120 131 131 127 128 132 135 137 139